www.pogodaiklimat.ru

Погода и климат >> Архив погоды >> Россия >> Приморский край >> Владивосток


АРХИВ ПОГОДЫ в Владивостоке

Время (UTC), дата Ветер
(напр.,м/с)
 
Видим.   Явления Облачность Т
(С)
Тd
(С)
f
(%)
Тe
(С)
Тes
(С)
Комфортность P
(гПа)
Po
(гПа)
Тmin
(С)
Tmax
(С)
R
(мм)
R24
(мм)
S
(см)
21 12.08 ЮВ 7 20 км 10/10 600 м
[Sc]
+17.0 +16.5 97 +16 +16 прохладно 1014.6 992.6 +17.0
00 13.08 ЮВ 5 20 км 10/10 600 м
[Sc]
+17.7 +17.0 96 +17 +17 по сезону 1014.6 992.6
03 13.08 Ю 4 20 км 10/10 600 м
[Sc]
+19.7 +18.5 93 +22 +22 комфорт 1014.1 992.3
06 13.08 Ю 5 20 км 10/10 600 м
[Sc]
+19.0 +18.2 95 +20 +20 по сезону 1013.4 991.6
09 13.08 ЮВ 6 20 км 10/10 600 м
[Sc]
+18.0 +17.5 97 +17 +17 прохладно 1013.3 991.3 +20.4
12 13.08 ЮВ 7 20 км 10/10 200 м
[St]
+17.3 +17.0 98 +16 +16 прохладно 1013.9 991.9
15 13.08 ЮВ 6 200 м туман ?/? +16.9 +16.9 100 +16 +16 прохладно 1014.1 992.0
18 13.08 ЮВ 5 200 м туман ?/? +16.5 +16.5 100 +16 +16 прохладно 1013.3 991.2
21 13.08 ЮВ 4 20 км в посл. час туман 10/10 200 м
[St]
+16.6 +16.6 100 +16 +16 прохладно 1012.7 990.6 +16.5
00 14.08 Ю 4 50 км {туман} 10/10 200 м
[St]
+17.4 +17.1 98 +17 +17 по сезону 1012.7 990.7
03 14.08 ЮВ 4 50 км 10/10 600 м
[St]
+18.7 +17.4 92 +20 +20 по сезону 1012.5 990.6
06 14.08 ЮВ 5 50 км 10/10 600 м
[St]
+18.6 +17.5 93 +19 +19 прохладно 1011.8 989.9
09 14.08 Ю 5 50 км 10/10 600 м
[St]
+17.8 +17.3 97 +17 +17 прохладно 1011.2 989.3 +18.9
12 14.08 ЮВ 5 50 км 10/10 600 м
[St]
+17.7 +17.2 97 +17 +17 прохладно 1011.9 989.9
15 14.08 ЮВ 6 50 км 10/10 600 м
[St]
+17.6 +16.8 95 +17 +17 по сезону 1011.6 989.7
18 14.08 ЮВ 5 50 км 10/10 600 м
[St]
+17.3 +16.6 96 +17 +17 по сезону 1011.1 989.1
21 14.08 Ю 3 50 км 10/10 600 м
[St]
+17.3 +16.5 95 +17 +17 по сезону 1011.2 989.3 +17.2
00 15.08 СВ 1 20 км слабая морось 10/10 200 м
[St]
+18.8 +17.5 92 +21 +21 комфорт 1011.2 989.4
03 15.08 З 1 20 км {морось} 8/8 600 м
[Sc]
+21.2 +18.3 84 +25 +29 комфорт 1010.7 989.0
06 15.08 ЮЗ 5 50 км {морось} 10/10 600 м
[Sc]
+21.4 +18.0 81 +26 +26 душно 1009.6 988.0
09 15.08 Ю 4 50 км 10/10 600 м
[Sc]
+20.2 +16.4 79 +23 +23 комфорт 1010.1 988.2 +23.2 0.0
12 15.08 50 км н/о +18.1 +16.4 90 +18 +18 по сезону 1010.8 988.9
15 15.08 ЮЗ 4 50 км 6/6 600 м
[Sc]
+17.0 +16.0 94 +17 +17 по сезону 1011.0 989.0
18 15.08 ЮЗ 3 50 км 8/8 600 м
[Sc]
+17.6 +17.0 96 +18 +18 по сезону 1010.7 988.7
21 15.08 ЮЗ 3 50 км 9/9 600 м
[Sc]
+17.4 +16.2 93 +17 +17 по сезону 1011.2 989.2 +16.9
00 16.08 Ю 2 50 км 9/9 600 м
[Sc]
+18.8 +16.6 87 +21 +21 комфорт 1011.4 989.6
03 16.08 Ю 4 50 км 10/10 600 м
[Sc]
+19.5 +16.2 81 +21 +21 комфорт 1011.6 989.8
06 16.08 Ю 2 50 км 9/9 600 м
[Sc]
+21.2 +17.1 77 +25 +26 комфорт 1011.2 989.5
09 16.08 Ю 4 50 км 9/8 600 м
[Sc Ci sp]
+19.6 +16.5 82 +22 +22 комфорт 1011.3 989.5 +21.4
12 16.08 Ю 3 50 км 8/8 600 м
[Sc]
+18.7 +17.4 92 +20 +20 тепло 1012.8 990.9
15 16.08 ЮЗ 2 50 км 10/10 600 м
[Sc]
+18.0 +17.5 97 +19 +19 по сезону 1013.0 991.0
18 16.08 ЮЗ 2 50 км 10/10 600 м
[Sc]
+18.1 +17.3 95 +19 +19 тепло 1013.0 991.0
21 16.08 З 2 20 км дождь 10/10 600 м
[Cb calv]
+17.6 +17.4 99 +18 +18 по сезону 1013.6 991.6 +17.6 2
00 17.08 ЮЗ 2 20 км {дождь, морось} 10/10 600 м
[Sc]
+18.9 +17.6 92 +21 +21 комфорт 1013.9 992.0
03 17.08 Ю 3 20 км 10/10 600 м
[Sc]
+19.9 +18.5 92 +23 +23 комфорт 1013.6 991.8
06 17.08 Ю 6 20 км 8/4 600 м
[Cu med, cong Ac cast]
+21.4 +17.7 79 +26 +27 душно 1012.6 990.9
09 17.08 Ю 6 20 км 4/0
[Ac cast]
+18.9 +15.8 82 +20 +20 по сезону 1012.8 990.9 +21.5
12 17.08 Ю 5 20 км 4/0
[Ac cast]
+17.3 +15.6 90 +17 +17 прохладно 1014.2 992.1
15 17.08 Ю 4 20 км 3/3 600 м
[Sc]
+17.1 +15.7 91 +17 +17 по сезону 1014.1 992.1
18 17.08 Ю 3 20 км 3/3 600 м
[Sc]
+17.3 +15.5 89 +17 +17 по сезону 1013.7 991.7
21 17.08 Ю 1 20 км 4/4 600 м
[Sc]
+17.3 +14.1 81 +18 +19 по сезону 1014.3 992.3 +16.8
00 18.08 З 1 50 км 9/9 600 м
[Sc]
+20.1 +16.8 81 +24 +25 комфорт 1014.7 992.9
03 18.08 З 1 50 км 3/0
[Ac cast]
+21.9 +17.5 76 +26 +41 душно 1014.2 992.5
06 18.08 ЮЗ 3 50 км ясно +23.3 +17.9 72 +29 +37 душно 1013.0 991.4
09 18.08 ЮЗ 3 50 км ясно +22.6 +18.0 75 +28 +28 душно 1012.5 991.4
12 18.08 ЮВ 2 50 км ясно +19.2 +18.2 94 +22 +22 комфорт 1014.2 992.4
15 18.08 ЮВ 3 50 км ясно +18.3 +18.0 98 +19 +19 по сезону 1014.9 992.9
18 18.08 ЮВ 3 50 км ясно +18.2 +18.0 99 +19 +19 тепло 1014.4 992.4
21 18.08 В 2 20 км ясно +18.1 +17.8 98 +19 +19 по сезону 1015.1 993.1 +17.9
00 19.08 СЗ 1 20 км 3/3 600 м
[Cu hum]
+21.4 +19.5 89 +26 +33 душно 1015.2 993.5
03 19.08 Ю 3 20 км 3/3 600 м
[Cu hum]
+23.1 +19.8 82 +30 +39 очень
душно
1015.0 993.4
06 19.08 ЮЗ 4 50 км 3/3 600 м
[Sc]
+24.7 +18.8 70 +30 +34 очень
душно
1013.5 992.1
09 19.08 Ю 3 50 км ясно +23.5 +17.6 69 +27 +28 душно 1013.3 991.7 +25.3
12 19.08 ЮВ 4 50 км ясно +20.0 +18.8 93 +23 +23 комфорт 1014.4 992.6
15 19.08 ЮВ 4 50 км ясно +19.1 +19.0 99 +21 +21 комфорт 1014.7 992.8

 

Местоположение метеостанции Владивосток (Приморский край, Россия): широта 43.12 долгота 131.90 высота над уровнем моря 188 м.

В архиве по умолчанию представлена погода в Владивостоке за последнюю неделю. Архивные данные за месяц целиком и за предыдущие месяцы, начиная с января 2011 года, Вы можете получить, выбрав интересующий диапазон дат из раскрывающегося списка и нажав кнопку "Ввод!".

Внимание! Время в таблицах - всемирное. Для получения местного времени необходимо прибавить поправку, которая в Владивостоке равна 10 ч.

Смотрите также архив погоды в соседних городах и на ближайших метеорологических станциях:

Погода в Барабаше (Приморский край, Россия) (42 км)
Погода в Находке (Приморский край, Россия) (81 км)
Погода в Гамове (Приморский край, Россия) (84 км)
Погода в Тимирязевском (Приморский край, Россия) (85 км)
Погода в Партизанске (Приморский край, Россия) (89 км)
Погода в Посьете (Приморский край, Россия) (104 км)
Погода в Полтавке (Приморский край, Россия) (112 км)
Погода в Анучино (Приморский край, Россия) (130 км)
Погода в Хороль (Приморский край, Россия) (146 км)
Погода в Пограничном (Приморский край, Россия) (150 км)

Пояснения к столбцам:

Ветер - указаны скорость ветра в м/с - средняя за 10 мин, порывы в срок и между сроками (в фигурных скобках) и направление, откуда дует ветер: С - северный, СВ - северо-восточный, В - восточный, ЮВ - юго-восточный, Ю - южный, ЮЗ - юго-западный, З - западный, СЗ - северо-западный.
Видимость - горизонтальная дальность видимости в метрах или километрах. При видимости от 1 до 10 км при отсутствии осадков обычно наблюдается дымка, при ухудшении видимости до 1 км и менее - туман. В сухую погоду видимость может ухудшаться дымом, пылью или мглою.
Явления - указаны атмосферные явления, наблюдавшиеся в срок или в последний час перед сроком; фигурными скобками обозначены явления, наблюдавшиеся между сроками (за 1-3 часа до срока); квадратными скобками обозначены град или гололедные отложения с указанием их диаметра в мм.
Облачность - указаны через наклонную черту общая и нижняя облачность в баллах и высота нижней границы облаков в метрах; квадратными скобками обозначены формы облаков: Ci - перистые, Cs - перисто-слоистые, Cc - перисто-кучевые, Ac - высококучевые, As - высокослоистые, Sc - слоисто-кучевые, Ns - слоисто-дождевые, Cu - кучевые, Cb - кучево-дождевые. Подробнее классификацию облаков см. в Атласе облаков (PDF).
T - Температура воздуха - температура, измеренная на высоте 2 м над землей.
Td - Температура точки росы - температура, при понижении до которой содержащийся в воздухе водяной пар достигнет насыщения.
f - Относительная влажность воздуха - влажноcть воздуха, измеренная на высоте 2 м над землей.
Te - Эффективная температура - температура, которую ощущает одетый по сезону человек в тени. Характеристика душности погоды. При расчете учитывается влияние влажности воздуха и скорости ветра на теплоощущения человека.
Tes - Эффективная температура на солнце - температура, которую ощущает человек, с поправкой на солнечный нагрев. Характеристика знойности погоды. Зависит от высоты солнца над горизонтом, облачности и скорости ветра. Ночью, в пасмурную погоду, а также при ветре 12 м/с и более поправка равна нулю.
P - Атмосферное давление - приведенное к уровню моря атмосферное давление.
Po - Атмосферное давление - измеренное на уровне метеостанции атмосферное давление.
Tmin - Минимальная температура - минимум температуры воздуха на высоте 2 м над землей.
Tmax - Максимальная температура - максимум температуры воздуха на высоте 2 м над землей.
R - Количество осадков - Количество выпавших осадков за период времени, мм. При наведении курсора мыши на число - период времени, за который выпало указанное количество осадков.
R24 - Количество осадков - Количество выпавших осадков за 24 часа, мм.
S - Снежный покров - Высота снежного покрова, см. При наведении курсора мыши на число - состояние снежного покрова и степень покрытия местности в баллах.